sat.trackr.live / text

‹ back to catalog

STARLINK-34465

NORAD 64438 · 2025-130A

PAYLOAD ACTIVE UNKNOWN

§ Identity

Operator
Country
US
Launch date
2025-06-18
Launch site
AFETR
Launch vehicle
Mass (kg)
RCS (m²)

Purposes: comms

External: N2YO · Heavens-Above · Gunter

§ Orbital elements

Epoch: 2026-05-25T02:19:48.874080Z

Period
93.90 min
Inclination
53.1599°
Eccentricity
0.0001081
Mean motion
15.33558002 rev/d
Perigee alt
464.5 km
Apogee alt
465.9 km
Semi-major
6,843.3 km
B*
6.2686e-4
RAAN
93.4776°
Arg perigee
108.5678°
Mean anomaly
251.5441°
Rev number
5,240

§ Raw data

STARLINK-344651 64438U 25130A   26145.09709345  .00020305  00000+0  62686-3 0  99912 64438  53.1599  93.4776 0001081 108.5678 251.5441 15.33558002 52405

JSON: /api/v1/satellites/64438 · /tle

For live sub-satellite position, see the globe view (requires WebGL).

§ Visibility from observer

Set your observer location to see the next 7 days of passes ≥ 10°. The values pass through the URL so the page stays shareable.

No JS? Fill the form by hand. The geolocation button needs JavaScript.